Weather Roundup
Issued by NWS Chicago, IL

Home | Current Version | Previous Version | Graphics & Text | Print | Product List | Glossary On
Versions: 1 2 3 4 5 6 7 8 9 10 11 12 13 14 15 16 17 18 19 20 21 22 23 24 25 26 27 28 29 30 31 32 33 34 35 36 37 38 39 40 41 42 43 44 45 46 47 48 49 50
857
NZUS59 KLOT 261009
HRRLOT

CHICAGO AREA WEATHER ROUNDUP
NATIONAL WEATHER SERVICE CHICAGO/ROMEOVILLE IL
500 AM CDT MON SEP 26 2016

NOTE: "FAIR" INDICATES FEW OR NO CLOUDS BELOW 12,000 FEET WITH NO
SIGNIFICANT WEATHER AND/OR OBSTRUCTIONS TO VISIBILITY.

* THESE STATIONS ARE NOT UNDER NWS QUALITY CONTROL. THEY ALSO MAY NOT
  REPORT WEATHER SUCH AS PRECIPITATION OR FOG.

ILZ005-006-012>014-019>023-261100-
NORTHEAST ILLINOIS

CITY           SKY/WX    TMP DP  RH WIND       PRES   REMARKS
OHARE          CLOUDY    60  49  66 W9        29.97R
MIDWAY         CLOUDY    62  50  64 W13       29.97R
AURORA         CLOUDY    60  51  72 W10       30.00S
LANSING*       CLOUDY    59  57  94 W10       29.99R
JOLIET*        CLOUDY    61  52  72 W6        30.01R
WAUKEGAN       CLOUDY    59  49  69 W5        29.94R
DUPAGE AIRPORT CLOUDY    60  49  66 W10       29.98R
WHEELING       CLOUDY    60  49  66 W9        29.98R
KANKAKEE*      CLOUDY    58  56  96 W6        30.02R
MORRIS*        CLOUDY    60  51  72 W7        30.01R
LEWIS AIRPORT* CLOUDY    60  53  79 W8        30.00R
NORTHERLY ISL    N/A     62  50  64 W10         N/A
$$

WIZ051-052-058>065-066-070>072-261100-
SOUTHEAST WISCONSIN

CITY           SKY/WX    TMP DP  RH WIND       PRES   REMARKS
MILWAUKEE      CLOUDY    60  48  64 W10       29.94R
KENOSHA*       CLOUDY    58  50  75 W12       29.95R
RACINE*        CLOUDY    59  48  67 W9        29.95R
BURLINGTON     CLOUDY    55  48  76 W7        29.96R
WAUKESHA       CLOUDY    54  46  76 SW8       29.95R
WEST BEND      CLOUDY    55  46  71 W7        29.91S
$$

INZ001>003-010>013-019-020-261100-
NORTHWEST INDIANA

CITY           SKY/WX    TMP DP  RH WIND       PRES   REMARKS
GARY*          CLOUDY    61  59  94 W12       29.98S
MICHIGAN CITY* NOT AVBL
RENSSELAER*    NOT AVBL
VALPARAISO     LGT RAIN  58  56  93 SW8       29.98F
$$

LMZ740>746-261100-
SOUTHERN LAKE MICHIGAN

STATION/POSITION TIME  SKY/WX   TEMP WIND        PRES    VSBY
                                AIR  DIR/SP/G
                 (UTC)          (F)  (DEG/KT/KT) (MB)    (MI)
HARRISON CRIB    0900            63  290/ 20/ 23   N/A
BURNHAM HARBOR   1000            62  320/  9/ 16   N/A
CALUMET HARBOR   0900            60  260/  3/  6 1014.0F
BURNS HARBOR     0900            61  230/  9/ 13 1015.2R
MICHIGAN CITY    0900            62  240/ 15/ 16   N/A
$$

ABBREVIATIONS USED IN REMARKS
   TC - TEMPERATURE IN CELSIUS
  WCI - WIND CHILL INDEX
   HX - HEAT INDEX
  VSB - VISIBILITY
$$




USA.gov is the U.S. government's official web portal to all federal, state and local government web resources and services.